| time (UTC) | temp F | wind direction | speed MPH | gust MPH | rain 1hr in | rain 24hr in | rain mn in | humidity % | barometer mb |
| 20260503020526 | 56 | 305 | 3.0 | 6.0 | 0.00 | 0.00 | 0.00 | 56 | 1008.7 |
| 20260503015523 | 56 | 318 | 6.0 | 7.0 | 0.00 | 0.00 | 0.00 | 53 | 1008.7 |
| 20260503014520 | 55 | 312 | 5.0 | 7.0 | 0.00 | 0.00 | 0.00 | 57 | 1008.7 |
| 20260503013518 | 57 | 325 | 5.0 | 8.0 | 0.00 | 0.00 | 0.00 | 55 | 1008.8 |
| 20260503012535 | 58 | 315 | 4.0 | 5.0 | 0.00 | 0.00 | 0.00 | 48 | 1008.8 |
| 20260503011533 | 58 | 302 | 3.0 | 5.0 | 0.00 | 0.00 | 0.00 | 47 | 1008.9 |
| 20260503010530 | 58 | 314 | 4.0 | 5.0 | 0.00 | 0.00 | 0.00 | 47 | 1008.9 |
| 20260503005528 | 58 | 322 | 4.0 | 6.0 | 0.00 | 0.00 | 0.00 | 47 | 1008.9 |
| 20260503004523 | 59 | 308 | 3.0 | 5.0 | 0.00 | 0.00 | 0.00 | 44 | 1009.1 |
| 20260503003521 | 59 | 302 | 3.0 | 4.0 | 0.00 | 0.00 | 0.00 | 44 | 1009.1 |
| 20260503002538 | 60 | 298 | 3.0 | 4.0 | 0.00 | 0.00 | 0.00 | 42 | 1009.2 |
| 20260503001516 | 60 | 303 | 3.0 | 5.0 | 0.00 | 0.00 | 0.00 | 42 | 1009.3 |
| 20260503000533 | 60 | 299 | 3.0 | 5.0 | 0.00 | 0.00 | 0.00 | 41 | 1009.3 |
| 20260502235530 | 60 | 275 | 3.0 | 6.0 | 0.00 | 0.00 | 0.00 | 39 | 1009.4 |
| 20260502234527 | 60 | 269 | 3.0 | 6.0 | 0.00 | 0.00 | 0.00 | 39 | 1009.5 |
| 20260502233524 | 60 | 277 | 3.0 | 4.0 | 0.00 | 0.00 | 0.00 | 40 | 1009.5 |
| 20260502232522 | 60 | 290 | 4.0 | 6.0 | 0.00 | 0.00 | 0.00 | 38 | 1009.7 |
| 20260502231519 | 60 | 263 | 3.0 | 6.0 | 0.00 | 0.00 | 0.00 | 39 | 1009.8 |
| 20260502230536 | 61 | 292 | 3.0 | 5.0 | 0.00 | 0.00 | 0.00 | 38 | 1009.9 |
| 20260502225533 | 60 | 299 | 4.0 | 6.0 | 0.00 | 0.00 | 0.00 | 38 | 1009.9 |
| 20260502224550 | 61 | 250 | 4.0 | 7.0 | 0.00 | 0.00 | 0.00 | 38 | 1010.1 |
| 20260502223529 | 61 | 279 | 4.0 | 8.0 | 0.00 | 0.00 | 0.00 | 37 | 1010.4 |
| 20260502222525 | 60 | 257 | 4.0 | 7.0 | 0.00 | 0.00 | 0.00 | 38 | 1010.5 |
| 20260502221542 | 60 | 285 | 5.0 | 9.0 | 0.00 | 0.00 | 0.00 | 37 | 1010.6 |
| 20260502220520 | 60 | 276 | 5.0 | 9.0 | 0.00 | 0.00 | 0.00 | 38 | 1010.7 |
| 20260502215517 | 61 | 306 | 5.0 | 9.0 | 0.00 | 0.00 | 0.00 | 37 | 1010.5 |
| 20260502214534 | 60 | 266 | 3.0 | 7.0 | 0.00 | 0.00 | 0.00 | 37 | 1010.7 |
| 20260502213552 | 60 | 247 | 7.0 | 14.0 | 0.00 | 0.00 | 0.00 | 37 | 1011.0 |
| 20260502212529 | 61 | 297 | 4.0 | 9.0 | 0.00 | 0.00 | 0.00 | 36 | 1011.1 |
| 20260502211527 | 60 | 259 | 6.0 | 12.0 | 0.00 | 0.00 | 0.00 | 36 | 1011.4 |
| 20260502210523 | 59 | 256 | 5.0 | 15.0 | 0.00 | 0.00 | 0.00 | 37 | 1011.4 |
| 20260502205521 | 60 | 312 | 8.0 | 15.0 | 0.00 | 0.00 | 0.00 | 38 | 1011.6 |
| 20260502204539 | 60 | 312 | 8.0 | 14.0 | 0.00 | 0.00 | 0.00 | 38 | 1011.7 |
| 20260502203535 | 60 | 274 | 5.0 | 13.0 | 0.00 | 0.00 | 0.00 | 37 | 1011.5 |
| 20260502202532 | 59 | 310 | 7.0 | 12.0 | 0.00 | 0.00 | 0.00 | 37 | 1011.9 |
| 20260502201530 | 59 | 273 | 5.0 | 11.0 | 0.00 | 0.00 | 0.00 | 37 | 1012.1 |
| 20260502200528 | 59 | 232 | 6.0 | 15.0 | 0.00 | 0.00 | 0.00 | 37 | 1012.2 |
| 20260502195524 | 59 | 286 | 5.0 | 10.0 | 0.00 | 0.00 | 0.00 | 37 | 1012.4 |
| 20260502194521 | 58 | 272 | 5.0 | 11.0 | 0.00 | 0.00 | 0.00 | 37 | 1012.5 |
| 20260502193518 | 58 | 225 | 6.0 | 12.0 | 0.00 | 0.00 | 0.00 | 36 | 1012.8 |
| 20260502192516 | 58 | 272 | 6.0 | 13.0 | 0.00 | 0.00 | 0.00 | 36 | 1012.9 |
| 20260502191533 | 58 | 319 | 7.0 | 13.0 | 0.00 | 0.00 | 0.00 | 37 | 1013.1 |
| 20260502190530 | 58 | 303 | 6.0 | 12.0 | 0.00 | 0.00 | 0.00 | 36 | 1013.2 |
| 20260502185527 | 57 | 272 | 5.0 | 10.0 | 0.00 | 0.00 | 0.00 | 35 | 1013.3 |
| 20260502184525 | 57 | 322 | 10.0 | 16.0 | 0.00 | 0.00 | 0.00 | 36 | 1013.5 |
| 20260502183522 | 57 | 317 | 8.0 | 17.0 | 0.00 | 0.00 | 0.00 | 35 | 1013.7 |
| 20260502182519 | 56 | 304 | 7.0 | 12.0 | 0.00 | 0.00 | 0.00 | 35 | 1013.9 |
| 20260502181536 | 56 | 313 | 8.0 | 12.0 | 0.00 | 0.00 | 0.00 | 35 | 1014.0 |
| 20260502180534 | 56 | 307 | 8.0 | 13.0 | 0.00 | 0.00 | 0.00 | 36 | 1014.2 |
| 20260502170517 | 54 | 253 | 5.0 | 13.0 | 0.00 | 0.00 | 0.00 | 36 | 1014.8 |
| 20260502163529 | 54 | 320 | 9.0 | 12.0 | 0.00 | 0.00 | 0.00 | 37 | 1015.1 |
| 20260502162526 | 54 | 325 | 11.0 | 18.0 | 0.00 | 0.00 | 0.00 | 37 | 1015.3 |
| 20260502161523 | 53 | 327 | 10.0 | 14.0 | 0.00 | 0.00 | 0.00 | 38 | 1015.4 |
| 20260502160520 | 53 | 326 | 9.0 | 17.0 | 0.00 | 0.00 | 0.00 | 37 | 1015.5 |
| 20260502151527 | 52 | 317 | 7.0 | 13.0 | 0.00 | 0.00 | 0.00 | 40 | 1015.7 |
| 20260502150524 | 52 | 319 | 9.0 | 12.0 | 0.00 | 0.00 | 0.00 | 41 | 1015.8 |
| 20260502130530 | 38 | 38 | 3.0 | 4.0 | 0.00 | 0.00 | 0.00 | 79 | 1016.1 |
| 20260502123521 | 29 | 59 | 2.0 | 3.0 | 0.00 | 0.00 | 0.00 | 96 | 1016.3 |
| 20260502122539 | 28 | 58 | 2.0 | 3.0 | 0.00 | 0.00 | 0.00 | 97 | 1016.3 |
| 20260502121516 | 27 | 53 | 2.0 | 3.0 | 0.00 | 0.00 | 0.00 | 97 | 1016.4 |
| 20260502120553 | 26 | 42 | 2.0 | 3.0 | 0.00 | 0.00 | 0.00 | 98 | 1016.3 |
| 20260502115531 | 26 | 41 | 2.0 | 3.0 | 0.00 | 0.00 | 0.00 | 98 | 1016.3 |
| 20260502113545 | 26 | 25 | 2.0 | 3.0 | 0.00 | 0.00 | 0.00 | 98 | 1016.3 |
| 20260502112523 | 26 | 22 | 2.0 | 3.0 | 0.00 | 0.00 | 0.00 | 98 | 1016.3 |
| 20260502111519 | 25 | 28 | 2.0 | 3.0 | 0.00 | 0.00 | 0.00 | 98 | 1016.3 |
| 20260502110517 | 25 | 21 | 2.0 | 3.0 | 0.00 | 0.00 | 0.00 | 98 | 1016.2 |
| 20260502105534 | 26 | 23 | 2.0 | 3.0 | 0.00 | 0.00 | 0.00 | 98 | 1016.2 |
| 20260502104531 | 26 | 21 | 2.0 | 4.0 | 0.00 | 0.00 | 0.00 | 98 | 1016.2 |
| 20260502103528 | 26 | 25 | 2.0 | 3.0 | 0.00 | 0.00 | 0.00 | 97 | 1016.3 |
| 20260502102526 | 26 | 25 | 2.0 | 3.0 | 0.00 | 0.00 | 0.00 | 97 | 1016.3 |
| 20260502101523 | 26 | 27 | 2.0 | 3.0 | 0.00 | 0.00 | 0.00 | 97 | 1016.2 |
| 20260502100520 | 26 | 15 | 3.0 | 3.0 | 0.00 | 0.00 | 0.00 | 97 | 1016.3 |
| 20260502091527 | 27 | 22 | 2.0 | 3.0 | 0.00 | 0.00 | 0.00 | 96 | 1016.3 |
| 20260502090524 | 27 | 44 | 2.0 | 3.0 | 0.00 | 0.00 | 0.00 | 96 | 1016.4 |
| 20260502071533 | 29 | 21 | 2.0 | 3.0 | 0.00 | 0.00 | 0.00 | 93 | 1016.6 |
| 20260502070530 | 30 | 8 | 2.0 | 3.0 | 0.00 | 0.00 | 0.00 | 93 | 1016.8 |
| 20260502064525 | 30 | 13 | 3.0 | 3.0 | 0.00 | 0.00 | 0.00 | 92 | 1017.0 |
| 20260502063523 | 30 | 18 | 2.0 | 3.0 | 0.00 | 0.00 | 0.00 | 92 | 1016.9 |
| 20260502062519 | 30 | 23 | 3.0 | 3.0 | 0.00 | 0.00 | 0.00 | 93 | 1017.0 |
| 20260502061517 | 30 | 11 | 3.0 | 4.0 | 0.00 | 0.00 | 0.00 | 90 | 1017.0 |
| 20260502060534 | 31 | 30 | 2.0 | 3.0 | 0.00 | 0.00 | 0.00 | 91 | 1017.0 |
| 20260502055551 | 31 | 17 | 2.0 | 3.0 | 0.00 | 0.00 | 0.00 | 90 | 1017.1 |
| 20260502054609 | 31 | 37 | 2.0 | 3.0 | 0.00 | 0.00 | 0.00 | 90 | 1017.0 |
| 20260502053525 | 31 | 5 | 3.0 | 4.0 | 0.00 | 0.00 | 0.00 | 89 | 1017.0 |
| 20260502052522 | 32 | 31 | 3.0 | 4.0 | 0.00 | 0.00 | 0.00 | 89 | 1017.1 |
| 20260502051520 | 32 | 11 | 3.0 | 3.0 | 0.00 | 0.00 | 0.00 | 87 | 1016.9 |
| 20260502050517 | 33 | 28 | 2.0 | 3.0 | 0.00 | 0.00 | 0.00 | 86 | 1016.8 |
| 20260502045535 | 33 | 14 | 3.0 | 4.0 | 0.00 | 0.00 | 0.00 | 86 | 1016.9 |
| 20260502044531 | 34 | 12 | 2.0 | 3.0 | 0.00 | 0.00 | 0.00 | 85 | 1017.0 |
| 20260502043529 | 35 | 12 | 2.0 | 3.0 | 0.00 | 0.00 | 0.00 | 82 | 1016.9 |
| 20260502042527 | 35 | 11 | 3.0 | 3.0 | 0.00 | 0.00 | 0.00 | 82 | 1016.9 |
| 20260502041523 | 36 | 9 | 3.0 | 3.0 | 0.00 | 0.00 | 0.00 | 82 | 1016.8 |
| 20260502040541 | 37 | 7 | 2.0 | 3.0 | 0.00 | 0.00 | 0.00 | 79 | 1016.9 |
| 20260502035518 | 37 | 15 | 3.0 | 3.0 | 0.00 | 0.00 | 0.00 | 80 | 1016.9 |
| 20260502034535 | 37 | 5 | 3.0 | 4.0 | 0.00 | 0.00 | 0.00 | 79 | 1016.9 |
| 20260502033532 | 38 | 13 | 2.0 | 3.0 | 0.00 | 0.00 | 0.00 | 81 | 1016.9 |
| 20260502032530 | 38 | 354 | 3.0 | 4.0 | 0.00 | 0.00 | 0.00 | 78 | 1016.8 |
| 20260502031527 | 39 | 7 | 3.0 | 4.0 | 0.00 | 0.00 | 0.00 | 75 | 1016.9 |
| 20260502030524 | 39 | 6 | 3.0 | 4.0 | 0.00 | 0.00 | 0.00 | 73 | 1016.8 |
| 20260502025521 | 39 | 3 | 3.0 | 4.0 | 0.00 | 0.00 | 0.00 | 70 | 1016.8 |
| 20260502024519 | 40 | 358 | 3.0 | 4.0 | 0.00 | 0.00 | 0.00 | 72 | 1016.7 |
| 20260502023516 | 40 | 3 | 2.0 | 3.0 | 0.00 | 0.00 | 0.00 | 69 | 1016.8 |
| 20260502022533 | 40 | 360 | 3.0 | 4.0 | 0.00 | 0.00 | 0.00 | 69 | 1016.7 |
| 20260502021531 | 40 | 7 | 3.0 | 3.0 | 0.00 | 0.00 | 0.00 | 68 | 1016.7 |